[[{"header":{"parameterUnit":"m.s-1","parameterCategory":1,"la1":30.2991,"la2":30.254,"lo1":-89.0895,"lo2":-89.0444,"dy":0.0017,"dx":0.0017,"nx":28,"ny":28,"refTime":"2024-03-16T21:00:00:Z","depth":0,"parameterNumber":2,"parameterNumberName":"U-component_of_WINDS"},"data":[0,0,0,0,0,0,0,0,0,0,0,0,0,0,0,0,0,0,0,0,0,0,0,0,0,0,0,0,0,0,0,0,0,0,0,0,0,0,0,0,0,0,0,0,0,0,0,0,0,0,0,0,0,0,0,0,0,0,-2.4253,-2.4253,0,-2.4288,-2.4288,-2.4288,-2.4238,-2.4237,-2.4235,-2.4233,-2.4271,-2.4274,-2.4276,0,0,0,0,0,0,0,0,0,0,0,0,0,-2.4146,-2.4148,-2.4253,-2.4253,-2.4253,-2.4287,-2.4288,-2.4288,-2.4239,-2.4237,-2.4234,-2.4232,-2.427,-2.4274,-2.4277,0,0,0,0,0,0,0,0,0,0,0,0,0,-2.4188,-2.4149,-2.4252,-2.4233,-2.4231,-2.4287,-2.4288,-2.4289,-2.4239,-2.4237,-2.4234,-2.4231,-2.4269,-2.4273,-2.4277,-2.4355,0,0,-2.4289,-2.4291,0,0,0,0,0,0,0,0,-2.4186,-2.4192,-2.4235,-2.4234,-2.4233,-2.4256,-2.4264,-2.4311,-2.424,-2.4236,-2.4233,-2.423,-2.4268,-2.4272,-2.4285,-2.4357,-2.4358,-2.429,-2.4292,-2.4294,-2.4295,0,0,0,0,0,0,0,-2.4183,-2.419,-2.4266,-2.4236,-2.4234,-2.4223,-2.4226,-2.4273,-2.4267,-2.4236,-2.4233,-2.4238,-2.4267,-2.4281,-2.4285,-2.4359,-2.429,-2.4293,-2.4296,-2.4297,-2.4498,-2.4501,0,0,0,0,0,0,-2.4182,-2.4188,-2.4265,-2.4267,-2.4202,-2.4227,-2.4231,-2.4251,-2.4266,-2.4266,-2.424,-2.4235,-2.4276,-2.4281,-2.4286,-2.4379,-2.4294,-2.4298,-2.43,-2.4495,-2.4499,-2.4502,0,0,0,0,0,0,-2.418,-2.4189,-2.4264,-2.4227,-2.4235,-2.4232,-2.4255,-2.4253,-2.4267,-2.4269,-2.4268,-2.4255,-2.4274,-2.4281,-2.4338,-2.4379,-2.4299,-2.4303,-2.4491,-2.4496,-2.45,-2.4564,0,0,0,0,0,0,-2.4177,-2.4189,-2.4217,-2.4228,-2.4238,-2.4314,-2.4258,-2.4256,-2.4274,-2.4268,-2.4282,-2.4282,-2.4272,-2.4333,-2.4342,-2.4383,-2.4306,-2.4488,-2.4494,-2.4499,-2.4558,-2.457,-2.458,0,0,0,0,0,-2.4173,-2.4234,-2.4219,-2.4229,-2.4273,-2.4317,-2.4322,-2.4309,-2.4277,-2.4306,-2.4308,-2.4282,-2.4374,-2.4339,-2.4349,-2.4392,-2.4485,-2.4492,-2.4498,-2.4553,-2.4568,-2.458,0,0,0,0,0,0,-2.4229,-2.4235,-2.4218,-2.4284,-2.43,-2.4308,-2.4344,-2.4324,-2.435,-2.4344,-2.4326,-2.433,-2.4392,-2.4398,-2.4359,-2.4469,-2.4424,-2.4433,-2.4463,-2.4476,-2.4487,-2.4484,-2.4309,0,0,0,0,0,-2.4249,-2.4283,-2.4287,-2.4344,-2.4353,-2.4348,-2.4366,-2.4355,-2.4371,-2.4377,-2.4383,-2.4401,-2.4434,-2.4455,-2.4486,-2.456,-2.4562,-2.4594,-2.4605,-2.4614,-2.4622,-2.4663,-2.4677,-2.4523,-2.4523,-2.4523,0,0,-2.429,-2.4298,-2.432,-2.4356,-2.4367,-2.4403,-2.4354,-2.4394,-2.4422,-2.4384,-2.4438,-2.4444,-2.4462,-2.4528,-2.4558,-2.4535,-2.4666,-2.4623,-2.463,-2.4633,-2.4671,-2.4685,-2.4698,-2.4528,-2.4527,-2.4526,0,0,-2.4383,-2.4393,-2.4442,-2.4454,-2.4472,-2.4468,-2.448,-2.4492,-2.4494,-2.4548,-2.4521,-2.4554,-2.4611,-2.4625,-2.464,-2.4742,-2.472,-2.4753,-2.481,-2.485,-2.4862,-2.4872,-2.4909,-2.4922,-2.4761,-2.4761,-2.4761,0,-2.4432,-2.4485,-2.447,-2.4513,-2.453,-2.4498,-2.4548,-2.4561,-2.4588,-2.4601,-2.4576,-2.4647,-2.4658,-2.4727,-2.4752,-2.4766,-2.478,-2.475,-2.4861,-2.4872,-2.4881,-2.4916,-2.493,-2.4765,-2.4764,-2.4764,-2.4764,0,-2.4545,-2.4583,-2.4621,-2.4647,-2.4669,-2.4715,-2.4708,-2.4732,-2.472,-2.4719,-2.4776,-2.4788,-2.482,-2.4836,-2.4824,-2.4905,-2.489,-2.4864,-2.4818,-2.49,-2.4932,-2.4945,-2.477,-2.4769,-2.4768,-2.4767,0,0,-2.4672,-2.4691,-2.4705,-2.4717,-2.4735,-2.4765,-2.4811,-2.4842,-2.4863,-2.4884,-2.4923,-2.4973,-2.4948,-2.4966,-2.4955,-2.499,-2.5071,-2.4959,-2.4959,-2.4979,-2.5161,-2.5181,-2.5196,-2.5057,-2.5059,-2.5061,-2.516,0,-2.4766,-2.4844,-2.4832,-2.4908,-2.4943,-2.4915,-2.4955,-2.4971,-2.4973,-2.5004,-2.5006,-2.5042,-2.5007,-2.5017,-2.5051,-2.5054,-2.5107,-2.5047,-2.5093,-2.5095,-2.5088,-2.5213,-2.5233,-2.5325,-2.5172,-2.5174,-2.5176,0,-2.4884,-2.4909,-2.4988,-2.5002,-2.5016,-2.5052,-2.5081,-2.5111,-2.513,-2.5129,-2.5149,-2.5133,-2.5181,-2.5136,-2.5201,-2.5161,-2.518,-2.5185,-2.5188,-2.5191,-2.5139,-2.5219,-2.5354,-2.5368,-2.5196,-2.5194,-2.5193,0,-2.4968,-2.5022,-2.5076,-2.5088,-2.5105,-2.5132,-2.5141,-2.5157,-2.5177,-2.5203,-2.5216,-2.5247,-2.5265,-2.529,-2.5284,-2.5251,-2.5351,-2.5305,-2.5352,-2.5352,-2.5373,-2.5372,-2.5513,-2.5387,-2.5387,-2.5387,-2.5386,0,-2.5073,-2.5123,-2.5114,-2.5148,-2.5203,-2.5191,-2.5247,-2.5252,-2.5267,-2.5302,-2.528,-2.5314,-2.5304,-2.5337,-2.5333,-2.5389,-2.5397,-2.5398,-2.5396,-2.5399,-2.5399,-2.541,-2.5403,-2.539,-2.539,-2.5389,-2.5388,0,-2.5176,-2.5172,-2.523,-2.5242,-2.5247,-2.5287,-2.5298,-2.5331,-2.5331,-2.5376,-2.5386,-2.5387,-2.5426,-2.5423,-2.5466,-2.5463,-2.5532,-2.5523,-2.5526,-2.5523,-2.557,-2.5566,-2.5723,-2.5743,-2.5605,-2.5606,-2.5607,0,-2.5242,-2.5279,-2.5296,-2.5318,-2.5329,-2.5364,-2.5384,-2.5375,-2.5397,-2.5423,-2.5453,-2.5489,-2.5518,-2.5581,-2.5587,-2.562,-2.5612,-2.5665,-2.5616,-2.5619,-2.5612,-2.5609,-2.5613,-2.5673,-2.5675,-2.5676,-2.5677,0,-2.536,-2.5357,-2.5387,-2.5417,-2.5443,-2.5466,-2.5487,-2.5507,-2.55,-2.5527,-2.5566,-2.5588,-2.5633,-2.567,-2.5702,-2.5713,-2.5694,-2.5693,-2.5705,-2.5708,-2.5708,-2.5708,-2.555,-2.5689,-2.5688,-2.5687,-2.5686,-2.5686,-2.5446,-2.5478,-2.5496,-2.553,-2.5546,-2.5567,-2.5598,-2.5603,-2.5635,-2.567,-2.5663,-2.5707,-2.5727,-2.5769,-2.5783,-2.5818,-2.5799,-2.5817,-2.5822,-2.5826,-2.5831,-2.5704,-2.5824,-2.5824,-2.5824,-2.5823,-2.5823,0,-2.5562,-2.5572,-2.5605,-2.5635,-2.5663,-2.5644,-2.5667,-2.5692,-2.5731,-2.5751,-2.578,-2.5826,-2.5862,-2.5871,-2.5907,-2.5933,-2.5926,-2.5943,-2.594,-2.5943,-2.5846,-2.5832,-2.5948,-2.5948,-2.5948,-2.5948,-2.5948,-2.5948,-2.5626,-2.568,-2.5679,-2.5741,-2.5751,-2.5794,-2.5809,-2.5829,-2.5845,-2.5897,-2.5927,-2.5932,-2.5949,-2.5985,-2.6018,-2.602,-2.6034,-2.6054,-2.6053,-2.5962,-2.595,-2.5938,-2.5924,-2.6058,-2.6058,-2.6147,-2.6147,-2.6148]},{"header":{"parameterUnit":"m.s-1","parameterCategory":1,"la1":30.2991,"la2":30.254,"lo1":-89.0895,"lo2":-89.0444,"dy":0.0017,"dx":0.0017,"nx":28,"ny":28,"refTime":"2024-03-16T21:00:00:Z","depth":0,"parameterNumber":3,"parameterNumberName":"V-component_of_WINDS"},"data":[0,0,0,0,0,0,0,0,0,0,0,0,0,0,0,0,0,0,0,0,0,0,0,0,0,0,0,0,0,0,0,0,0,0,0,0,0,0,0,0,0,0,0,0,0,0,0,0,0,0,0,0,0,0,0,0,0,0,0.9877,0.9878,0,0.9945,0.9946,0.9947,1.0003,1.0004,1.0004,1.0005,1.0072,1.0073,1.0074,0,0,0,0,0,0,0,0,0,0,0,0,0,0.9794,0.9795,0.9877,0.9878,0.9879,0.9945,0.9946,0.9947,1.0003,1.0004,1.0005,1.0005,1.0071,1.0073,1.0074,0,0,0,0,0,0,0,0,0,0,0,0,0,0.9843,0.9796,0.9877,0.9915,0.9919,0.9945,0.9946,0.9947,1.0003,1.0004,1.0005,1.0006,1.0071,1.0073,1.0074,1.0067,0,0,1.008,1.0081,0,0,0,0,0,0,0,0,0.984,0.9846,0.9909,0.9913,0.9917,0.9967,0.9941,0.9988,1.0003,0.9971,1.0005,1.0006,1.0036,1.0041,1.0051,1.0071,1.0073,1.008,1.0081,1.0082,1.0083,0,0,0,0,0,0,0,0.9837,0.9843,0.9904,0.9909,0.9915,0.9928,0.9936,0.995,0.9997,0.9974,0.9978,0.9986,1.0038,1.0049,1.0053,1.0074,1.008,1.0082,1.0083,1.0084,1.0093,1.0092,0,0,0,0,0,0,0.9828,0.984,0.9902,0.9906,0.988,0.9929,0.9938,0.995,0.9997,1.0006,0.9985,0.9988,1.0046,1.0051,1.0056,1.0053,1.0082,1.0084,1.0085,1.0094,1.0093,1.0092,0,0,0,0,0,0,0.9826,0.9833,0.9899,0.9874,0.9884,0.9929,0.9943,0.9951,0.9962,1.0006,1.0014,0.9988,1.0047,1.0053,1.0065,1.0056,1.0085,1.0086,1.0095,1.0094,1.0092,1.0045,0,0,0,0,0,0,0.9823,0.9832,0.983,0.9874,0.9885,0.9908,0.9942,0.9951,0.9965,0.997,1.0011,1.0018,1.0048,1.0062,1.0067,1.0059,1.0088,1.0096,1.0094,1.0093,1.0047,1.0042,1.0037,0,0,0,0,0,0.982,0.9813,0.983,0.9837,0.9884,0.9907,0.9913,0.9949,0.9964,0.9963,0.9991,1.0017,1.0055,1.0062,1.0068,1.0061,1.0097,1.0095,1.0093,1.005,1.0043,1.0038,0,0,0,0,0,0,0.9766,0.9819,0.9839,0.9846,0.9871,0.9916,0.9916,0.994,0.9962,0.9965,1.0007,1.0016,1.0023,1.0043,1.005,1.0057,1.0079,1.0079,1.0045,1.0039,1.0034,1.003,1.0089,0,0,0,0,0,0.9754,0.9769,0.9815,0.9817,0.9829,0.987,0.9881,0.9906,0.9934,0.9945,0.9974,1.0,1.0018,1.0029,1.0048,1.005,1.006,1.0047,1.0042,1.0038,1.0038,1.0041,1.0037,1.0086,1.0086,1.0086,0,0,0.9732,0.9763,0.977,0.9807,0.983,0.9844,0.9879,0.9892,0.9903,0.9947,0.9961,0.9983,1.0014,1.0021,1.0025,1.0038,1.0026,1.0036,1.0032,1.0034,1.0039,1.0034,1.003,1.0084,1.0085,1.0085,0,0,0.9698,0.9722,0.9728,0.975,0.9785,0.9813,0.9813,0.9855,0.9872,0.9886,0.992,0.9933,0.9963,0.9984,0.9999,0.9974,0.9999,0.9978,0.9953,0.9956,0.9953,0.9949,0.9942,0.9939,0.9977,0.9977,0.9977,0,0.9665,0.9689,0.9727,0.9739,0.9755,0.9796,0.9802,0.9821,0.986,0.987,0.9883,0.9922,0.9946,0.996,0.9953,0.9963,0.9966,0.9975,0.995,0.9947,0.9945,0.9938,0.9935,0.9974,0.9975,0.9975,0.9975,0,0.9648,0.9664,0.9663,0.9702,0.9717,0.9725,0.9764,0.9775,0.9799,0.9824,0.9839,0.9868,0.9895,0.99,0.9922,0.9916,0.9923,0.9942,0.9966,0.9937,0.9932,0.9929,0.9971,0.9972,0.9972,0.9973,0,0,0.9583,0.9642,0.9642,0.966,0.9701,0.9714,0.9724,0.9751,0.9761,0.9785,0.9796,0.982,0.9839,0.9855,0.988,0.9883,0.9863,0.9902,0.9904,0.9895,0.9861,0.9847,0.9844,0.9879,0.9879,0.9878,0.9859,0,0.9557,0.958,0.9615,0.9625,0.9641,0.968,0.9689,0.9715,0.9739,0.9756,0.9782,0.98,0.9822,0.9832,0.9836,0.9864,0.9857,0.9866,0.9889,0.989,0.9883,0.9841,0.9827,0.9807,0.9856,0.9856,0.9856,0,0.9531,0.9556,0.9568,0.961,0.9618,0.9625,0.9654,0.9668,0.9699,0.9716,0.9735,0.9762,0.9775,0.9795,0.9814,0.9819,0.983,0.9845,0.9845,0.9851,0.9872,0.9846,0.9801,0.9798,0.9853,0.9853,0.9853,0,0.9485,0.9521,0.9534,0.9548,0.9596,0.96,0.962,0.9652,0.9666,0.969,0.97,0.9724,0.9738,0.9756,0.9789,0.98,0.9804,0.9827,0.982,0.9819,0.982,0.982,0.9778,0.9824,0.9824,0.9824,0.9824,0,0.9454,0.9461,0.9514,0.9522,0.9531,0.957,0.9577,0.96,0.9628,0.9641,0.9675,0.9686,0.9729,0.9745,0.9771,0.9783,0.9788,0.9803,0.981,0.9801,0.9799,0.981,0.9813,0.9823,0.9823,0.9824,0.9824,0,0.9405,0.9441,0.9458,0.9502,0.9513,0.9518,0.9556,0.9565,0.9591,0.9607,0.9613,0.9653,0.9674,0.9709,0.9739,0.9756,0.9764,0.9775,0.9755,0.9759,0.9751,0.9752,0.9716,0.9714,0.9759,0.9759,0.9758,0,0.9384,0.9391,0.9436,0.9448,0.9467,0.9485,0.9501,0.9539,0.9553,0.9588,0.9593,0.9617,0.9638,0.967,0.9702,0.9725,0.9738,0.9723,0.9742,0.9733,0.974,0.974,0.9741,0.972,0.9719,0.9719,0.9718,0,0.9344,0.9362,0.9383,0.941,0.9428,0.9451,0.9475,0.9483,0.9526,0.954,0.9563,0.9579,0.9611,0.9635,0.9663,0.9683,0.9708,0.9712,0.9712,0.9704,0.9693,0.9701,0.9745,0.9713,0.9714,0.9714,0.9714,0.9714,0.931,0.9318,0.9352,0.9374,0.9397,0.942,0.9431,0.9459,0.9478,0.9508,0.9529,0.955,0.9581,0.9622,0.964,0.9657,0.9668,0.9668,0.9668,0.9668,0.9665,0.9688,0.9662,0.9662,0.9662,0.9663,0.9663,0,0.9273,0.9297,0.9317,0.9352,0.9369,0.9392,0.942,0.9434,0.9452,0.9479,0.95,0.9526,0.9549,0.9582,0.9608,0.9615,0.9627,0.962,0.9621,0.9626,0.9653,0.9651,0.961,0.961,0.961,0.961,0.961,0.961,0.9257,0.9272,0.9293,0.932,0.9344,0.9366,0.9381,0.9402,0.9423,0.9451,0.9471,0.9493,0.9523,0.9551,0.9573,0.9582,0.9591,0.9581,0.9594,0.9619,0.9624,0.9628,0.9627,0.9582,0.9582,0.9566,0.9565,0.9565]}]]